Regional Weather Roundup
Issued by NWS

Home | Current Version | Previous Version | Text Only | Print | Product List | Glossary Off
Versions: 1 2 3 4 5 6 7 8 9 10 11 12 13 14 15 16 17 18 19 20 21 22 23 24 25 26 27 28 29 30 31 32 33 34 35 36 37 38 39 40 41 42 43 44 45 46 47 48 49 50

000
ASUS44 KMEG 261710
RWRTN
TENNESSEE HOURLY STATE WEATHER ROUNDUP
NATIONAL WEATHER SERVICE MEMPHIS TN
1100 AM CST MON JAN 26 2015

TNZ002-004-019-021-049-052-054-088>092-261800-
WEST TENNESSEE

CITY           SKY/WX    TMP DP  RH WIND       PRES   REMARKS
MEMPHIS INTL   CLOUDY    42  29  59 NW8       30.13R
NWS MEMPHIS      N/A     41 N/A N/A MISG        N/A
JACKSON        CLOUDY    38  27  64 NW14      30.10R WCI  30
DYERSBURG      CLOUDY    37  19  48 NW7       30.13F WCI  32
UNION CITY     PTSUNNY   34  28  80 NW10      30.08F WCI  26
PARIS          CLOUDY    30  25  80 W8        30.08S WCI  23
LEXINGTON      PTSUNNY   37  27  65 VRB7      30.06R WCI  32
SAVANNAH       MOSUNNY   37  27  65 NW16      30.09R WCI  28
$$

TNZ008-025-027-028-033-062-065-066-261800-
NORTH MIDDLE TENNESSEE

CITY           SKY/WX    TMP DP  RH WIND       PRES   REMARKS
NASHVILLE      CLOUDY    34  29  82 NW7       30.02F WCI  28
CLARKSVILLE    CLOUDY    33  28  81 N12       30.05R WCI  24
SMYRNA         CLOUDY    33  28  82 N10       30.03S WCI  25
COOKEVILLE     CLOUDY    30  28  93 N8        29.95S WCI  23
CROSSVILLE     CLOUDY    29  27  92 NW13G21   29.89R FOG     WCI  19
$$

TNZ061-075-076-078-094-096-097-261800-
SOUTH MIDDLE TENNESSEE

CITY           SKY/WX    TMP DP  RH WIND       PRES   REMARKS
FAYETTEVILLE   CLOUDY    32  28  86 MISG      29.99S
TULLAHOMA      CLOUDY    30  27  86 NW13      29.99R WCI  20
WINCHESTER     CLOUDY    32  28  86 NW14      29.99R WCI  22
MCMINNVILLE    CLOUDY    30  30 100 N9        29.98R WCI  22
COLUMBIA       CLOUDY    36  34  93 NW8       30.01S WCI  29
SHELBYVILLE    CLOUDY    34  30  86 N14       30.01F WCI  24
$$

TNZ017-018-042-046-047-261800-
NORTHEAST TENNESSEE

CITY           SKY/WX    TMP DP  RH WIND       PRES   REMARKS
TRI CITIES     CLOUDY    39  35  86 W14       29.73S WCI  31
ELIZABETHTON   LGT RAIN  36  36 100 W10       29.72S WCI  28
$$

TNZ012-013-036-069-073-074-261800-
CENTRAL EAST TENNESSEE

CITY           SKY/WX    TMP DP  RH WIND       PRES   REMARKS
KNOXVILLE      NOT AVBL
OAK RIDGE      CLOUDY    38  30  73 CALM      29.88R
GATLINBURG     CLOUDY    36  28  75 W9        29.83S WCI  29
MORRISTOWN     CLOUDY    36  28  75 W13       29.81R WCI  27
$$

TNZ083-085-099-261800-
SOUTHEAST TENNESSEE

CITY           SKY/WX    TMP DP  RH WIND       PRES   REMARKS
CHATTANOOGA    CLOUDY    38  29  70 NW15G25   29.94R WCI  29
$$

SKY/WX REPORTED AS FAIR MEANS FEW OR NO CLOUDS BELOW
12 THOUSAND FEET.




USA.gov is the U.S. government's official web portal to all federal, state and local government web resources and services.